Location: Natural Bridges National Monument
(37.6093°N, 109.9767°W)
Time: 06:29:59
(UTC-06:00)

Cosmos 1727 Rocket - Visible Passes

Search period start: 05 August 2015 00:00
Search period end: 15 August 2015 00:00
Orbit: 960 x 997 km, 82.9° (Epoch: 04 August)

Date Brightness Start Highest point End Pass type
(mag) Time Alt. Az. Time Alt. Az. Time Alt. Az.
05 Aug 5.1 04:21:18 10° SSE 04:26:55 40° E 04:32:39 10° NNE visible
06 Aug 4.1 04:47:15 11° S 04:53:09 77° E 04:59:21 10° N visible
07 Aug 6.2 03:30:38 10° SE 03:34:33 19° E 03:38:46 10° NE visible
07 Aug 4.1 05:14:06 13° SSW 05:19:33 57° W 05:25:38 10° N visible
08 Aug 5.2 03:56:09 14° SSE 04:00:39 36° E 04:06:14 10° NNE visible
08 Aug 4.9 05:40:55 10° SW 05:46:11 30° WNW 05:51:29 10° NNW visible
09 Aug 4.2 04:22:55 23° S 04:26:52 69° E 04:33:02 10° NNE visible
10 Aug 6.2 03:04:54 10° ESE 03:08:19 17° E 03:12:09 10° NE visible
10 Aug 4.0 04:49:40 26° SSW 04:53:14 64° W 04:59:23 10° N visible
11 Aug 5.3 03:31:36 22° SE 03:34:23 32° E 03:39:49 10° NNE visible
11 Aug 4.7 05:16:22 20° SW 05:19:49 33° WNW 05:25:19 10° NNW visible
12 Aug 4.3 03:58:17 38° SSE 04:00:35 62° E 04:06:42 10° NNE visible
12 Aug 5.5 05:43:03 12° WSW 05:46:39 18° WNW 05:50:34 10° NNW visible
13 Aug 6.2 02:40:11 12° ESE 02:42:04 15° E 02:45:28 10° NE visible
13 Aug 3.9 04:24:56 44° SSW 04:26:55 71° W 04:33:07 10° N visible
14 Aug 5.4 03:06:48 26° ESE 03:08:08 29° E 03:13:23 10° NNE visible
14 Aug 4.6 04:51:34 31° WSW 04:53:28 37° WNW 04:59:08 10° N visible
